Location: Unspecified
(0.0000°N, 0.0000°E)
Time: 13:33:25
(UTC+00:00)

Altair - Visible Passes

Search period start: 28 September 2023 00:00
Search period end: 08 October 2023 00:00
Orbit: 1501 x 1682 km, 47.2° (Epoch: 27 September)

Date Brightness Start Highest point End Pass type
(mag) Time Alt. Az. Time Alt. Az. Time Alt. Az.
03 Oct 9.3 20:54:40 10° SSW 20:55:52 14° S 20:55:52 14° S visible
04 Oct 9.0 20:29:47 10° S 20:32:23 19° S 20:32:23 19° S visible
05 Oct 8.7 20:04:57 10° S 20:08:56 22° SSE 20:08:56 22° SSE visible
06 Oct 8.6 19:40:10 10° S 19:45:33 23° SSE 19:45:33 23° SSE visible
06 Oct 9.5 21:42:40 10° SW 21:43:36 14° SW 21:43:36 14° SW visible
07 Oct 8.5 19:15:27 10° S 19:22:01 21° SE 19:22:13 21° SE visible
07 Oct 9.0 21:17:26 10° SW 21:20:17 23° SW 21:20:17 23° SW visible
